Regional Weather Roundup
Issued by NWS Northern Indiana

Home | Current Version | Previous Version | Text Only | Print | Product List | Glossary On
Versions: 1 2 3 4 5 6 7 8 9 10 11 12 13 14 15 16 17 18 19 20 21 22 23 24 25 26 27 28 29 30 31 32 33 34 35 36 37 38 39 40 41 42 43 44 45 46 47 48 49 50
000
ASUS43 KIWX 101710
RWRIWX

KIWX WEATHER ROUNDUP
NATIONAL WEATHER SERVICE NORTHERN INDIANA
1200 PM EST SAT DEC 10 2016

NOTE: "FAIR" INDICATES FEW OR NO CLOUDS BELOW 12,000 FEET WITH NO
SIGNIFICANT WEATHER AND/OR OBSTRUCTIONS TO VISIBILITY.

* THESE STATIONS ARE NOT UNDER NWS QUALITY CONTROL. THEY ALSO MAY NOT
  REPORT WEATHER SUCH AS PRECIPITATION OR FOG.

INZ001>027-101800-
NORTHERN INDIANA

CITY           SKY/WX    TMP DP  RH WIND       PRES   REMARKS
GARY*          PTSUNNY   27  14  59 SW12      30.53F WCI  16
VALPARAISO     SUNNY     25  14  63 SW12      30.50F WCI  14
MICHIGAN CITY* CLOUDY    25  16  68 W8        30.50F WCI  16
LAPORTE*       SUNNY     24  14  66 W10       30.50F WCI  13
KNOX*          MOSUNNY   27  -4  26 W7        30.51F WCI  19
SOUTH BEND     FLURRIES  21  16  81 SW12      30.49F WCI   9
ELKHART*       LGT SNOW  23  16  74 W10       30.48F WCI  12
GOSHEN         CLOUDY    25  13  60 W12       30.48F WCI  14
MONTICELLO*    PTSUNNY   25  11  54 W8G18     30.52F WCI  17
LOGANSPORT*    CLOUDY    27  18  69 W14       30.53F WCI  15
ROCHESTER*     PTSUNNY   28  19  69 W10       30.51F WCI  19
WARSAW*        CLOUDY    25  14  63 W9        30.50F WCI  15
ANGOLA*        CLOUDY    25  18  74 W10       30.46F WCI  15
FORT WAYNE     FLURRIES  25  16  68 W12       30.51F WCI  14
HUNTINGTON*    CLOUDY    25  15  65 W8G17     30.51F WCI  16
PERU/GRISSOM   CLOUDY    25  16  68 W10       30.50F WCI  15
MARION*        CLOUDY    25  16  70 W13       30.53S WCI  13

$$
INZ028>050-101800-
CENTRAL INDIANA

CITY           SKY/WX    TMP DP  RH WIND       PRES   REMARKS
LAFAYETTE      MOSUNNY   24  16  71 W5        30.53F WCI  18
KOKOMO*        CLOUDY    25  17  72 SW13      30.52F WCI  14
MUNCIE*        CLOUDY    25  17  72 W10       30.53F WCI  15
INDIANAPOLIS   CLOUDY    27  15  61 W10       30.54F WCI  17

$$
MIZ043>046-050>051-056>058-064>065-071>073-077>080-101800-
SOUTHWEST LOWER MICHIGAN

CITY           SKY/WX    TMP DP  RH WIND       PRES   REMARKS
BATTLE CREEK   LGT SNOW  22  18  85 SW16      30.43F FOG     WCI   8
BENTON HARBOR  LGT SNOW  26  17  68 W13       30.47F WCI  15
COLDWATER*     CLOUDY    23  17  78 SW13G18   30.45F WCI  12
HILLSDALE*     FLURRIES  23  14  68 SW13      30.42F WCI  11
HOLLAND        LGT SNOW  25  19  78 W13G18    30.44F WCI  14
GRAND RAPIDS   SNOW      24  19  81 NW9       30.42F VSB 1/2 WCI  14
KALAMAZOO      SNOW      22  17  81 SW12      30.44F VSB 1/2 WCI  10
STURGIS*       FLURRIES  23  18  80 SW12      30.45F WCI  12
THREE RIVERS*  LGT SNOW  22  17  81 W10       30.47F WCI  12

$$
OHZ001>008-015>018-024>025-101800-
NORTHWEST OHIO

CITY           SKY/WX    TMP DP  RH WIND       PRES   REMARKS
WAUSEON*       FAIR      28  16  59 W14G21    30.47F WCI  17
DEFIANCE       MOSUNNY   27  13  55 W10       30.50F WCI  17
FINDLAY        MOSUNNY   27  14  58 SW16      30.49F WCI  15
TOLEDO EXPRESS SUNNY     27  15  61 SW15      30.47F WCI  15
TOLEDO METCALF MOSUNNY   28  16  60 SW13      30.49F WCI  17
LIMA           CLOUDY    24  16  71 W15       30.49F WCI  11

$$
AND FOR LAKE MICHIGAN COASTAL AND OPEN LAKE BUOY OBSERVATIONS

STATION/POSITION TEMP    WIND        PRES    VSBY  WAVE
                 AIR SEA DIR/SP/G                  HT/PER
                 (F)     (DEG/KT/KT) (MB)    (MI)  (FT/S)
CALUMET HARBOR    25     240/  5/  9 1032.3F
BURNS HARBOR      24     250/ 11/ 14 1033.5F
SAINT JOSEPH      27     280/ 10/ 17 1032.5

$$
&&



USA.gov is the U.S. government's official web portal to all federal, state and local government web resources and services.